Satellite-Ground Cal/Val Site Overpasses Predictions

Prediction of Satellite NPP Overpassing Cal/Val Site: Antarctic Dome C

Ground Cal/Val Site Location: Latitude: -75.10, Longitude: 123.35; Satellite-Ground Site NADIR distance within 100 km.

Table of predicted overpasses for the next 14.0 days since TLE Epoch: 5/4/2019
Interval Starting Time Ending Time Minimum Distance Time Minimum Distance (km)
1 05/05/2019 15:07:27 05/05/2019 15:07:34 05/05/2019 15:07:31 96.24
2 05/06/2019 14:48:26 05/06/2019 14:48:55 05/06/2019 14:48:41 15.04
3 05/08/2019 07:31:17 05/08/2019 07:31:46 05/08/2019 07:31:31 1.59
4 05/11/2019 14:54:46 05/11/2019 14:55:15 05/11/2019 14:55:01 21.90
5 05/12/2019 14:36:04 05/12/2019 14:36:19 05/12/2019 14:36:11 85.26
6 05/13/2019 07:37:37 05/13/2019 07:38:05 05/13/2019 07:37:51 35.34
7 05/14/2019 07:18:53 05/14/2019 07:19:12 05/14/2019 07:19:02 74.63
8 05/16/2019 15:01:09 05/16/2019 15:01:32 05/16/2019 15:01:20 59.08


NCC Satellite Cal/Val Overpasses Prediction Service
